Simultaneous Nadir Overpasses (SNOs) Predictions

Prediction of SNOs between AQUA and METOP-A Satellite Orbit:

Table of predicted SNOs for the next 14.0 days since TLE Epoch: 10/12/2012
Index Date (AQUA) Time (AQUA) AQUA Lat,Lon Date (METOP-A) Time (METOP-A) METOP-A Lat,Lon Distance(km) Time Diff (sec)
1 10/14/2012 12:37:37 73.82, -15.24 10/14/2012 12:37:10 73.82, -15.18 2.07 27
2 10/14/2012 13:27:04 -73.89, 152.24 10/14/2012 13:27:51 -73.87, 152.28 2.70 47
3 10/17/2012 07:22:12 -73.15,-115.02 10/17/2012 07:21:06 -73.10,-117.73 87.75 66
4 10/17/2012 08:11:52 73.80, 51.24 10/17/2012 08:11:31 73.81, 51.22 1.06 21
5 10/17/2012 09:01:19 -73.87,-141.27 10/17/2012 09:02:12 -73.87,-141.30 0.95 53
6 10/20/2012 02:56:32 -73.44, -49.17 10/20/2012 02:55:22 -73.35, -50.76 51.30 70
7 10/20/2012 03:46:07 73.84, 117.61 10/20/2012 03:45:52 73.81, 117.63 2.68 15
8 10/20/2012 04:35:34 -73.90, -74.90 10/20/2012 04:36:33 -73.88, -74.88 2.56 59
9 10/22/2012 22:30:49 -73.67, 16.77 10/22/2012 22:29:37 -73.61, 16.23 18.34 72
10 10/22/2012 23:20:19 73.81,-175.90 10/22/2012 23:20:12 73.81,-175.95 1.59 7
11 10/23/2012 00:09:46 -73.88, -8.40 10/23/2012 00:10:53 -73.88, -8.46 2.06 67
12 10/25/2012 18:05:03 -73.75, 83.05 10/25/2012 18:03:55 -73.77, 83.00 2.51 68
13 10/25/2012 18:54:32 73.84,-109.52 10/25/2012 18:54:33 73.82,-109.53 2.53 1




NCC Satellite Simultaneous Nadir Overpasses (SNOs) Prediction Service
